OneWeb SL0338

operational
NORAD ID: 49204 Int'l Des: 2021-083 Owner: ONEWEBN Country: UK Constellation: oneweb
LEOCIRCULARPOLARONEWEB_TYPE

OneWeb SL0338について

説明を読み込み中...

リアルタイム位置

3D地球を読み込み中...

次回通過

高度履歴

Altitude vs Time

uPlot chart will show altitude changes over time

軌道要素

1 49204U 21083U 25353.42218699 .00000011 00000-0 -42002-5 0 9998
2 49204 87.9206 310.3149 0001945 73.1685 286.9661 13.20770809213082
Epoch: Dec 19, 2025 • Age: 18 hours

現在のステータス

高度 1201.0 km
速度 7.25 km/s
衛星直下点 -46.33°S, 11.2°W
打ち上げ日 Sep 14, 2021
運用期間 4.2 years
タイプ internet

技術仕様

分類 Payload
質量 148.00 kg
乾燥質量 140.00 kg
総質量 148.00 kg
長さ 1.30 m
直径 1.00 m
スパン 5.00 m
形状 Trapezoid+2 pan
製造者 ONEWUS
バスタイプ ARROW
フェーズステータス In Orbit
所有者/国 ONEWEBN/UK

大規模コンステレーション

Loading constellations...